Weather History for KMOB - September, 2013

Change the Weather History Date:

Tuesday, September 10, 2013

  Actual Average Record
Temperature  
Mean Temperature 82 °F 79 °F  
Max Temperature 91 °F 88 °F 99 °F (1980)
Min Temperature 73 °F 70 °F 56 °F (1956)
Degree Days  
Heating Degree Days 0 0  
Month to date heating degree days 0 0  
Since 1 July heating degree days 0 0  
Cooling Degree Days 17 14  
Month to date cooling degree days 172 149  
Year to date cooling degree days 2002 2076  
Growing Degree Days 32 (Base 50)    
Moisture  
Dew Point 70 °F    
Average Humidity 72    
Maximum Humidity 93    
Minimum Humidity 50    
Precipitation  
Precipitation 0.16 in 0.17 in 6.80 in (1944)
Month to date precipitation 2.90 1.75  
Year to date precipitation 54.60 48.91  
Sea Level Pressure  
Sea Level Pressure 30.09 in    
Wind  
Wind Speed 4 mph (East)    
Max Wind Speed 22 mph    
Max Gust Speed 28 mph    
Visibility 9 miles    
Events Rain , Thunderstorm    
T = Trace of Precipitation, MM = Missing Value Source: NWS Daily Summary

Daily Weather History Graph

Daily Weather History Graph

Search for Another Location

Airport or City:

Trip Planner

Search our weather history database for the weather conditions in past years. The results will help you decide how hot, cold, wet, or windy it might be!

Date:

Astronomy

Sep. 10, 2013 Rise Set
Actual Time 6:34 AM CDT 7:04 PM CDT
Civil Twilight 6:10 AM CDT 7:28 PM CDT
Nautical Twilight 5:41 AM CDT 7:57 PM CDT
Astronomical Twilight 5:13 AM CDT 8:25 PM CDT
Moon 11:36 AM CDT (9/10) 10:32 PM CDT (9/10)
Length of Visible Light 13h 18m
Length of Day
12h 29m
Waxing Crescent, 28% of the Moon is Illuminated
Sep 10
Waxing Crescent
Sep 12
First Quarter
Sep 19
Full
Sep 26
Last Quarter
Oct 4
New

Hourly Weather History & Observations

Time (CDT) Temp. Heat Index Dew Point Humidity Pressure Visibility Wind Dir Wind Speed Gust Speed Precip Events Conditions
12:56 AM 73.9 °F - 70.0 °F 87% 30.05 in 9.0 mi Calm Calm - N/A   Clear
1:56 AM 73.0 °F - 70.0 °F 90% 30.05 in 8.0 mi Calm Calm - N/A   Mostly Cloudy
2:56 AM 73.0 °F - 70.0 °F 90% 30.04 in 8.0 mi Calm Calm - N/A   Mostly Cloudy
3:56 AM 75.0 °F - 70.0 °F 84% 30.04 in 10.0 mi Calm Calm - 0.01 in   Overcast
4:56 AM 75.0 °F - 69.1 °F 82% 30.06 in 10.0 mi NE 5.8 mph - N/A   Overcast
5:56 AM 75.0 °F - 69.1 °F 82% 30.07 in 7.0 mi Calm Calm - N/A   Mostly Cloudy
6:56 AM 75.0 °F - 70.0 °F 84% 30.09 in 7.0 mi NE 5.8 mph - N/A   Scattered Clouds
7:56 AM 75.9 °F - 71.1 °F 85% 30.11 in 7.0 mi Calm Calm - N/A   Mostly Cloudy
8:56 AM 81.0 °F 84.9 °F 71.1 °F 72% 30.12 in 7.0 mi NNE 5.8 mph - N/A   Mostly Cloudy
9:56 AM 84.9 °F 88.8 °F 69.1 °F 59% 30.13 in 10.0 mi ENE 8.1 mph - N/A   Mostly Cloudy
10:56 AM 87.1 °F 91.3 °F 69.1 °F 55% 30.13 in 10.0 mi ENE 8.1 mph - N/A   Scattered Clouds
11:56 AM 89.1 °F 92.9 °F 68.0 °F 50% 30.12 in 10.0 mi ENE 9.2 mph - N/A   Scattered Clouds
12:56 PM 89.1 °F 93.7 °F 69.1 °F 52% 30.12 in 10.0 mi SE 6.9 mph - N/A   Mostly Cloudy
1:56 PM 89.1 °F 94.1 °F 70.0 °F 53% 30.09 in 10.0 mi ENE 5.8 mph - N/A   Mostly Cloudy
2:56 PM 88.0 °F 92.1 °F 69.1 °F 53% 30.07 in 10.0 mi ENE 4.6 mph - N/A   Mostly Cloudy
3:44 PM 84.2 °F 89.6 °F 71.6 °F 66% 30.08 in 10.0 mi SSE 15.0 mph 24.2 mph N/A Thunderstorm Thunderstorm
3:56 PM 82.0 °F 85.9 °F 70.0 °F 67% 30.07 in 8.0 mi ESE 17.3 mph 27.6 mph 0.00 in Rain , Thunderstorm Light Thunderstorms and Rain
4:22 PM 78.8 °F - 71.6 °F 78% 30.08 in 7.0 mi SSE 9.2 mph - 0.16 in Rain Light Rain
4:56 PM 81.0 °F 86.2 °F 73.9 °F 79% 30.07 in 8.0 mi Calm Calm - 0.16 in   Mostly Cloudy
5:56 PM 82.0 °F 86.3 °F 71.1 °F 69% 30.07 in 10.0 mi SSE 6.9 mph - N/A   Scattered Clouds
6:56 PM 81.0 °F 84.9 °F 71.1 °F 72% 30.08 in 10.0 mi SSE 5.8 mph - N/A   Scattered Clouds
7:56 PM 75.9 °F - 72.0 °F 87% 30.09 in 10.0 mi Calm Calm - 0.01 in   Scattered Clouds
8:56 PM 75.9 °F - 72.0 °F 87% 30.11 in 10.0 mi Calm Calm - N/A   Scattered Clouds
9:32 PM 75.2 °F - 71.6 °F 89% 30.13 in 10.0 mi Calm Calm - N/A   Scattered Clouds
9:56 PM 75.0 °F - 71.1 °F 87% 30.13 in 10.0 mi Calm Calm - N/A   Partly Cloudy
10:56 PM 73.9 °F - 71.1 °F 91% 30.12 in 8.0 mi North 3.5 mph - N/A   Scattered Clouds
11:56 PM 73.9 °F - 71.1 °F 91% 30.12 in 8.0 mi Calm Calm - N/A   Clear